7 * 24
多渠道服务支持
HEAD-1,又名和德一号,是中国北京和德宇航技术有限公司自主研制的微小卫星,于北京时间2017年11月14日成功发射。它属于和德宇航"天行者"卫星星座的组成部分,运行在近地点约790公里、远地点约804公里的太阳同步极轨轨道,倾角约98.96度,目前仍在轨正常工作,将为全球用户提供商用空间信息服务。
中国
(CN)
| 数据来源 | 国际轨道数据 |
| 星历时间: | 2026-09-14T07:07:41+0800 6小时前 查看轨道信息 |
| 半长轴: | 7173.734km |
| 偏心率: | 0.0008855 |
| 轨道倾角: | 98.954° |
| 近地点辐角 | 255.883° |
| 升交点赤经 | 277.840° |
| 平近点角 | 104.137° |
| 近地点: | 789.244km |
| 远地点: | 801.95km |
| 周期: | 100.781分钟 |
| 每日圈数: | 14.288443 |